Newport, AR

7:20 AM CST on December 08, 2019 (GMT -0600)
Newport

Weather History for KM19 - November, 2019

Change the Weather History Date:

Wednesday, November 13, 2019

  Actual Average (WUND) Record (WUND)
Temperature  
Mean Temperature 27 °F -  
Max Temperature 37 °F - - (-1)
Min Temperature 17 °F - - (-1)
Degree Days  
Heating Degree Days 38    
Moisture  
Dew Point 19 °F    
Average Humidity 70    
Maximum Humidity 88    
Minimum Humidity 41    
Precipitation  
Precipitation 0.00 in - - ()
Sea Level Pressure  
Sea Level Pressure 30.31 in    
Wind  
Wind Speed 6 mph ()    
Max Wind Speed 14 mph    
Max Gust Speed -    
Visibility 9.9 miles    
Events      
Averages and records for this station are not official NWS values.
T = Trace of Precipitation, MM = Missing Value Source: Averaged Metar Reports

Daily Weather History Graph

Daily Weather History Graph

Search for Another Location

Airport or City:

Astronomy

Nov. 13, 2019 Rise Set
Actual Time 6:38 AM CST 4:59 PM CST
Civil Twilight 6:11 AM CST 5:26 PM CST
Nautical Twilight 5:40 AM CST 5:57 PM CST
Astronomical Twilight 5:10 AM CST 6:27 PM CST
Moon 6:03 PM CST (11/13) 7:31 AM CST (11/13)
Length of Visible Light 11h 15m
Length of Day
10h 21m
Full, 99% of the Moon is Illuminated
Nov 13
Full
Nov 19
Last Quarter
Nov 26
New
Dec 4
First Quarter
Dec 11
Full

Hourly Weather History & Observations

Time (CST) Temp. Windchill Dew Point Humidity Pressure Visibility Wind Dir Wind Speed Gust Speed Precip Events Conditions
12:56 AM 19.0 °F 11.1 °F 14.0 °F 81% 30.45 in 10.0 mi East 5.8 mph - N/A   Clear
1:56 AM 19.0 °F 12.3 °F 14.0 °F 81% 30.44 in 10.0 mi ESE 4.6 mph - N/A   Clear
2:56 AM 19.0 °F 10.0 °F 14.0 °F 81% 30.42 in 10.0 mi SE 6.9 mph - N/A   Clear
3:56 AM 18.0 °F 11.1 °F 14.0 °F 84% 30.42 in 10.0 mi ESE 4.6 mph - N/A   Clear
4:56 AM 17.1 °F 10.0 °F 14.0 °F 88% 30.42 in 10.0 mi SE 4.6 mph - N/A   Clear
5:56 AM 18.0 °F 12.7 °F 15.1 °F 88% 30.41 in 10.0 mi SSE 3.5 mph - N/A   Clear
7:56 AM 23.0 °F 13.9 °F 16.0 °F 74% 30.43 in 10.0 mi SSE 8.1 mph - N/A   Clear
8:56 AM 25.0 °F 14.8 °F 16.0 °F 69% 30.41 in 10.0 mi SE 10.4 mph - N/A   Clear
9:56 AM 27.0 °F 18.7 °F 16.0 °F 63% 30.39 in 10.0 mi SSE 8.1 mph - N/A   Clear
10:56 AM 30.0 °F 22.4 °F 17.1 °F 59% 30.38 in 10.0 mi South 8.1 mph - N/A   Clear
11:56 AM 33.1 °F 24.9 °F 16.0 °F 50% 30.32 in 8.0 mi South 10.4 mph - N/A   Clear
12:56 PM 35.1 °F 28.6 °F 16.0 °F 46% 30.29 in 10.0 mi South 8.1 mph - N/A   Clear
1:56 PM 36.0 °F 31.1 °F 16.0 °F 44% 30.24 in 10.0 mi Variable 5.8 mph - N/A   Clear
2:56 PM 37.0 °F 29.8 °F 15.1 °F 41% 30.24 in 10.0 mi SSW 10.4 mph - N/A   Clear
3:56 PM 37.9 °F 30.5 °F 19.9 °F 48% 30.19 in 10.0 mi SSE 11.5 mph - N/A   Clear
4:56 PM 33.1 °F 27.7 °F 21.0 °F 61% 30.19 in 10.0 mi SE 5.8 mph - N/A   Clear
5:56 PM 30.9 °F 26.2 °F 25.0 °F 79% 30.20 in 10.0 mi SSE 4.6 mph - N/A   Clear
6:56 PM 32.0 °F 26.4 °F 24.1 °F 73% 30.22 in 10.0 mi South 5.8 mph - N/A   Clear
7:56 PM 30.9 °F 20.7 °F 25.0 °F 79% 30.20 in 10.0 mi South 13.8 mph - N/A   Clear
8:56 PM 30.0 °F 24.1 °F 25.0 °F 82% 30.22 in 10.0 mi South 5.8 mph - N/A   Clear
9:56 PM 30.9 °F 26.2 °F 24.1 °F 76% 30.23 in 10.0 mi SSW 4.6 mph - N/A   Clear
10:56 PM 30.0 °F 23.2 °F 24.1 °F 79% 30.24 in 10.0 mi SW 6.9 mph - N/A   Partly Cloudy
11:56 PM 30.0 °F 22.4 °F 25.0 °F 82% 30.22 in 10.0 mi SSW 8.1 mph - N/A   Partly Cloudy